Retour au catalogue

THORAD AGENA D DEB

ActifSSO
NORAD 4914·DEBRIS·🇺🇸 United States

Lancé Apr 8, 1970 depuis Vandenberg Space Force Base

Loading…

Prochains Passages (prochaines 24 heures)

TLE

FraisSource: Space-Track

Époque: Sep 14, 2026, 08:39 UTC

1 04914U 70025FL  26257.36059087  .00002779  00000-0  30921-2 0  9994
2 04914  99.4428 201.8562 0080388 342.6850 170.3391 13.70932285786998

Suivez THORAD AGENA D DEB en temps réel avec AllMySat

Download on the App Store